Previsão horária em Abakumovo

Hoje, 18 Abril, Domingo

Tempo Temperatura Precipitação Vento Pressão Humidade
00:00 +9°C° 1.2 mm 2 m/s 747 mmHg 90%
01:00 +8°C° 0.5 mm 2 m/s 748 mmHg 90%
02:00 +8°C° 0.5 mm 2 m/s 748 mmHg 91%
03:00 +7°C° 0.5 mm 2 m/s 748 mmHg 91%
04:00 +7°C° 0.6 mm 2 m/s 748 mmHg 91%
05:00 +8°C° 0.6 mm 1 m/s 748 mmHg 91%
06:00 +8°C° 0.6 mm 1 m/s 748 mmHg 92%
07:00 +8°C° 0 mm 1 m/s 748 mmHg 86%
08:00 +9°C° 0 mm 1 m/s 748 mmHg 81%
09:00 +10°C° 0 mm 1 m/s 748 mmHg 76%
10:00 +9°C° 0.1 mm 2 m/s 748 mmHg 72%
11:00 +10°C° 0.1 mm 2 m/s 748 mmHg 68%
12:00 +12°C° 0.1 mm 2 m/s 748 mmHg 63%
13:00 +11°C° 0.4 mm 3 m/s 748 mmHg 63%
14:00 +11°C° 0.4 mm 4 m/s 748 mmHg 62%
15:00 +12°C° 0.4 mm 4 m/s 748 mmHg 62%
16:00 +11°C° 0.4 mm 4 m/s 748 mmHg 64%
17:00 +11°C° 0.4 mm 3 m/s 748 mmHg 67%
18:00 +10°C° 0.4 mm 3 m/s 749 mmHg 70%
19:00 +9°C° 0.2 mm 3 m/s 749 mmHg 75%
20:00 +9°C° 0.2 mm 3 m/s 749 mmHg 80%
21:00 +7°C° 0.2 mm 4 m/s 749 mmHg 85%
22:00 +7°C° 0.1 mm 4 m/s 749 mmHg 87%
23:00 +6°C° 0.1 mm 4 m/s 749 mmHg 90%

Amanhã, 19 Abril, Segunda-feira

Tempo Temperatura Precipitação Vento Pressão Humidade
00:00 +6°C° 0.1 mm 4 m/s 749 mmHg 93%
01:00 +6°C° 0.1 mm 4 m/s 749 mmHg 93%
02:00 +6°C° 0.1 mm 4 m/s 749 mmHg 93%
03:00 +6°C° 0.1 mm 5 m/s 749 mmHg 93%
04:00 +5°C° 0.3 mm 5 m/s 749 mmHg 92%
05:00 +5°C° 0.3 mm 5 m/s 749 mmHg 91%
06:00 +5°C° 0.3 mm 5 m/s 749 mmHg 91%
07:00 +4°C° 0.4 mm 6 m/s 749 mmHg 91%
08:00 +4°C° 0.4 mm 6 m/s 749 mmHg 92%
09:00 +4°C° 0.4 mm 6 m/s 749 mmHg 93%
10:00 +3°C° 0.5 mm 6 m/s 749 mmHg 94%
11:00 +2°C° 0.5 mm 7 m/s 749 mmHg 94%
12:00 +2°C° 0.5 mm 7 m/s 749 mmHg 95%
13:00 0°C° 1 mm 7 m/s 750 mmHg 95%
14:00 +1°C° 1 mm 6 m/s 750 mmHg 96%
15:00 -1°C° 1 mm 6 m/s 750 mmHg 96%
16:00 +1°C° 0.3 mm 6 m/s 750 mmHg 97%
17:00 +1°C° 0.3 mm 6 m/s 750 mmHg 97%
18:00 +2°C° 0.3 mm 6 m/s 750 mmHg 97%
19:00 +2°C° 0.2 mm 6 m/s 750 mmHg 96%
20:00 +2°C° 0.2 mm 6 m/s 750 mmHg 96%
21:00 +2°C° 0.2 mm 6 m/s 750 mmHg 96%
22:00 +2°C° 1.2 mm 5 m/s 750 mmHg 96%
23:00 +2°C° 1.2 mm 5 m/s 750 mmHg 96%

Depois de amanhã, 20 Abril, Terça-feira

Tempo Temperatura Precipitação Vento Pressão Humidade
00:00 +2°C° 1.2 mm 5 m/s 750 mmHg 97%
01:00 +2°C° 0.3 mm 5 m/s 749 mmHg 96%
02:00 +2°C° 0.3 mm 5 m/s 749 mmHg 96%
03:00 +2°C° 0.3 mm 5 m/s 749 mmHg 96%
04:00 +2°C° 0 mm 5 m/s 749 mmHg 95%
05:00 +2°C° 0 mm 6 m/s 749 mmHg 95%
06:00 +3°C° 0 mm 6 m/s 749 mmHg 95%
07:00 +3°C° 0 mm 6 m/s 749 mmHg 94%
08:00 +3°C° 0 mm 6 m/s 749 mmHg 93%
09:00 +3°C° 0 mm 6 m/s 749 mmHg 93%
10:00 +4°C° 0 mm 6 m/s 749 mmHg 90%
11:00 +4°C° 0 mm 7 m/s 749 mmHg 88%
12:00 +5°C° 0 mm 7 m/s 749 mmHg 86%
13:00 +5°C° 0 mm 7 m/s 748 mmHg 86%
14:00 +4°C° 0 mm 7 m/s 748 mmHg 86%
15:00 +4°C° 0 mm 8 m/s 747 mmHg 86%
16:00 +4°C° 0.3 mm 8 m/s 747 mmHg 85%
17:00 +3°C° 0.3 mm 9 m/s 746 mmHg 84%
18:00 +3°C° 0.3 mm 9 m/s 745 mmHg 83%
19:00 +3°C° 0.9 mm 10 m/s 744 mmHg 83%
20:00 +3°C° 0.9 mm 10 m/s 743 mmHg 84%
21:00 +3°C° 0.9 mm 11 m/s 742 mmHg 85%
22:00 +3°C° 1.9 mm 11 m/s 741 mmHg 87%
23:00 +3°C° 1.9 mm 11 m/s 740 mmHg 89%

21 Abril, Quarta-feira

Tempo Temperatura Precipitação Vento Pressão Humidade
00:00 +2°C° 1.9 mm 11 m/s 739 mmHg 91%
01:00 +3°C° 1.1 mm 11 m/s 739 mmHg 90%
02:00 +3°C° 1.1 mm 10 m/s 738 mmHg 90%
03:00 +3°C° 1.1 mm 10 m/s 738 mmHg 90%
04:00 +3°C° 0.3 mm 10 m/s 737 mmHg 91%
05:00 +5°C° 0.3 mm 9 m/s 737 mmHg 91%
06:00 +5°C° 0.3 mm 9 m/s 737 mmHg 92%
07:00 +5°C° 0.9 mm 9 m/s 737 mmHg 91%
08:00 +5°C° 0.9 mm 9 m/s 737 mmHg 91%
09:00 +6°C° 0.9 mm 9 m/s 737 mmHg 90%
10:00 +6°C° 0.2 mm 9 m/s 737 mmHg 90%
11:00 +6°C° 0.2 mm 8 m/s 737 mmHg 90%
12:00 +6°C° 0.2 mm 8 m/s 737 mmHg 90%
13:00 +6°C° 0.3 mm 8 m/s 738 mmHg 86%
14:00 +5°C° 0.3 mm 8 m/s 739 mmHg 82%
15:00 +5°C° 0.3 mm 8 m/s 740 mmHg 79%
16:00 +5°C° 0 mm 8 m/s 741 mmHg 79%
17:00 +5°C° 0 mm 8 m/s 742 mmHg 80%
18:00 +5°C° 0 mm 7 m/s 742 mmHg 80%
19:00 +4°C° 0 mm 7 m/s 743 mmHg 80%
20:00 +4°C° 0 mm 7 m/s 744 mmHg 79%
21:00 +4°C° 0 mm 7 m/s 744 mmHg 79%
22:00 +4°C° 0 mm 7 m/s 745 mmHg 80%
23:00 +4°C° 0 mm 6 m/s 745 mmHg 81%

22 Abril, Quinta-feira

Tempo Temperatura Precipitação Vento Pressão Humidade
00:00 +4°C° 0 mm 6 m/s 746 mmHg 82%
01:00 +5°C° 0 mm 5 m/s 746 mmHg 83%
02:00 +5°C° 0 mm 5 m/s 746 mmHg 84%
03:00 +5°C° 0 mm 5 m/s 747 mmHg 84%
04:00 +4°C° 0 mm 4 m/s 747 mmHg 85%
05:00 +4°C° 0 mm 4 m/s 748 mmHg 86%
06:00 +4°C° 0 mm 3 m/s 748 mmHg 86%
07:00 +5°C° 0 mm 3 m/s 749 mmHg 82%
08:00 +6°C° 0 mm 4 m/s 749 mmHg 78%
09:00 +7°C° 0 mm 4 m/s 750 mmHg 73%
10:00 +8°C° 0.1 mm 4 m/s 750 mmHg 68%
11:00 +10°C° 0.1 mm 4 m/s 750 mmHg 63%
12:00 +10°C° 0.1 mm 5 m/s 750 mmHg 57%
13:00 +12°C° 0.1 mm 4 m/s 751 mmHg 56%
14:00 +12°C° 0.1 mm 4 m/s 751 mmHg 55%
15:00 +13°C° 0.1 mm 4 m/s 751 mmHg 54%
16:00 +12°C° 0.2 mm 4 m/s 751 mmHg 59%
17:00 +12°C° 0.2 mm 4 m/s 751 mmHg 63%
18:00 +11°C° 0.2 mm 3 m/s 751 mmHg 68%
19:00 +10°C° 0.2 mm 3 m/s 752 mmHg 72%
20:00 +9°C° 0.2 mm 3 m/s 752 mmHg 76%
21:00 +8°C° 0.2 mm 3 m/s 752 mmHg 81%
22:00 +8°C° 0 mm 3 m/s 752 mmHg 82%
23:00 +8°C° 0 mm 3 m/s 752 mmHg 83%

23 Abril, Sexta-feira

Tempo Temperatura Precipitação Vento Pressão Humidade
00:00 +7°C° 0 mm 3 m/s 753 mmHg 84%
01:00 +7°C° 0 mm 3 m/s 753 mmHg 83%
02:00 +5°C° 0 mm 3 m/s 753 mmHg 83%
03:00 +5°C° 0 mm 3 m/s 753 mmHg 83%
04:00 +5°C° 0 mm 3 m/s 753 mmHg 83%
05:00 +5°C° 0 mm 3 m/s 753 mmHg 83%
06:00 +6°C° 0 mm 2 m/s 753 mmHg 83%
07:00 +7°C° 0 mm 3 m/s 754 mmHg 79%
08:00 +9°C° 0 mm 3 m/s 754 mmHg 75%
09:00 +10°C° 0 mm 3 m/s 754 mmHg 71%
10:00 +11°C° 0.1 mm 4 m/s 754 mmHg 66%
11:00 +12°C° 0.1 mm 4 m/s 755 mmHg 62%
12:00 +13°C° 0.1 mm 4 m/s 755 mmHg 58%
13:00 +14°C° 0 mm 4 m/s 755 mmHg 56%
14:00 +14°C° 0 mm 4 m/s 754 mmHg 53%
15:00 +14°C° 0 mm 3 m/s 754 mmHg 51%
16:00 +14°C° 0 mm 3 m/s 754 mmHg 54%
17:00 +15°C° 0 mm 2 m/s 754 mmHg 58%
18:00 +15°C° 0 mm 2 m/s 754 mmHg 61%
19:00 +13°C° 0 mm 2 m/s 755 mmHg 63%
20:00 +12°C° 0 mm 2 m/s 755 mmHg 66%
21:00 +10°C° 0 mm 2 m/s 755 mmHg 69%
22:00 +10°C° 0 mm 2 m/s 755 mmHg 69%
23:00 +9°C° 0 mm 2 m/s 755 mmHg 70%
Mostrar mais

Necessitamos do seu Consentimento

A Meteoprog e os seus Fornecedores de Serviços podem armazenar e aceder a dados pessoais como cookies, identificadores do dispositivo ou outras tecnologias semelhantes existentes no seu dispositivo e processar estes dados para personalizar conteúdos e anúncios, assim como funcionalidades nas redes sociais e análise de tráfego.

  • Armazenar e/ou aceder a informações no seu dispositivo

    Os cookies, identificadores do dispositivo ou outras informações podem ser armazenados ou acedidos no seu dispositivo, para os fins acima indicados.

  • Anúncios e conteúdos personalizados, medição de anúncios e conteúdos, dados sobre o público-alvo e desenvolvimento de produtos

    Os anúncios e os conteúdos podem ser personalizados com base num perfil. Podem ser adicionados dados adicionais para uma maior personalização dos anúncios e dos conteúdos. A eficácia dos anúncios e dos conteúdos pode ser medida. Podem ser obtidas informações sobre o público que visualizou os anúncios e os conteúdos. Estes dados podem ser usados para desenvolver ou melhorar sistemas, softwares ou a experiência do utilizador.

Ao clicar em "Eu concordo”, permitirá o uso de cookies, identificadores do dispositivo e web beacons mencionados ou outras tecnologias semelhantes. As configurações do navegador do seu dispositivo podem ser alteradas.

Para certos fins, podem ser invocados interesses legítimos ao invés de consentimento. Pode ler mais informação sobre este assunto na nossa Política de Privacidade e Cookies.